Concordia, KS

11:31 AM CST on November 15, 2019 (GMT -0600)
Blosser Municipal

Weather History for KCNK - October, 2019

Change the Weather History Date:

Wednesday, October 23, 2019

  Actual Average Record
Temperature  
Mean Temperature 54 °F 53 °F  
Max Temperature 66 °F 64 °F 88 °F (1939)
Min Temperature 42 °F 41 °F 21 °F (1917)
Degree Days  
Heating Degree Days 11 12  
Month to date heating degree days 198 205  
Since 1 July heating degree days 201 278  
Cooling Degree Days 0 0  
Month to date cooling degree days 9 20  
Year to date cooling degree days 1657 1346  
Growing Degree Days 6 (Base 50)    
Moisture  
Dew Point 34 °F    
Average Humidity 50    
Maximum Humidity 71    
Minimum Humidity 28    
Precipitation  
Precipitation 0.00 in 0.05 in 0.60 in (1947)
Month to date precipitation 1.20 1.51  
Year to date precipitation 32.22 25.52  
Snow  
Snow 0.00 in 0.00 in T in (1967)
Month to date snowfall 0.0 0.1  
Year to date snowfall 32.3 13.8  
Since 1 July snowfall 0.0 0.1  
Snow Depth 0.00 in    
Sea Level Pressure  
Sea Level Pressure 29.94 in    
Wind  
Wind Speed 14 mph (NW)    
Max Wind Speed 25 mph    
Max Gust Speed 35 mph    
Visibility 10 miles    
Events      
T = Trace of Precipitation, MM = Missing Value Source: NWS Daily Summary

Daily Weather History Graph

Daily Weather History Graph

Search for Another Location

Airport or City:

Astronomy

Oct. 23, 2019 Rise Set
Actual Time 7:48 AM CDT 6:40 PM CDT
Civil Twilight 7:21 AM CDT 7:07 PM CDT
Nautical Twilight 6:49 AM CDT 7:39 PM CDT
Astronomical Twilight 6:18 AM CDT 8:10 PM CDT
Moon 2:10 AM CDT (10/23) 4:30 PM CDT (10/23)
Length of Visible Light 11h 46m
Length of Day
10h 51m
Waning Crescent, 26% of the Moon is Illuminated
Oct 23
Waning Crescent
Oct 27
New
Nov 4
First Quarter
Nov 12
Full
Nov 19
Last Quarter

Hourly Weather History & Observations

Time (CDT) Temp. Windchill Dew Point Humidity Pressure Visibility Wind Dir Wind Speed Gust Speed Precip Events Conditions
12:55 AM 54.0 °F - 30.0 °F 40% 29.87 in 10.0 mi SSW 11.5 mph - N/A   Partly Cloudy
1:55 AM 55.9 °F - 30.9 °F 39% 29.84 in 10.0 mi South 12.7 mph - N/A   Mostly Cloudy
2:55 AM 54.0 °F - 30.9 °F 41% 29.83 in 10.0 mi SSW 9.2 mph - N/A   Overcast
3:55 AM 54.0 °F - 30.9 °F 41% 29.81 in 10.0 mi SSW 12.7 mph - N/A   Overcast
4:55 AM 54.0 °F - 30.9 °F 41% 29.79 in 10.0 mi SSW 15.0 mph - N/A   Mostly Cloudy
5:55 AM 53.1 °F - 30.9 °F 43% 29.80 in 10.0 mi SSW 11.5 mph - N/A   Clear
6:55 AM 55.9 °F - 30.0 °F 37% 29.80 in 10.0 mi SSW 17.3 mph - N/A   Clear
7:55 AM 57.0 °F - 30.0 °F 36% 29.78 in 10.0 mi SSW 16.1 mph - N/A   Partly Cloudy
8:55 AM 55.9 °F - 30.9 °F 39% 29.82 in 10.0 mi SW 11.5 mph 20.7 mph N/A   Clear
9:55 AM 57.0 °F - 32.0 °F 39% 29.85 in 10.0 mi West 15.0 mph - N/A   Clear
10:55 AM 61.0 °F - 39.9 °F 46% 29.86 in 10.0 mi NW 19.6 mph 28.8 mph N/A   Clear
11:55 AM 63.0 °F - 39.9 °F 43% 29.89 in 10.0 mi NW 17.3 mph 28.8 mph N/A   Clear
12:55 PM 62.1 °F - 36.0 °F 38% 29.90 in 10.0 mi NW 21.9 mph 32.2 mph N/A   Clear
1:55 PM 64.9 °F - 35.1 °F 33% 29.89 in 10.0 mi NNW 20.7 mph 29.9 mph N/A   Clear
2:55 PM 64.0 °F - 33.1 °F 31% 29.91 in 10.0 mi NW 13.8 mph 28.8 mph N/A   Clear
3:55 PM 66.0 °F - 33.1 °F 29% 29.91 in 10.0 mi North 18.4 mph 26.5 mph N/A   Clear
4:55 PM 64.9 °F - 30.9 °F 28% 29.94 in 10.0 mi NNW 11.5 mph 25.3 mph N/A   Clear
5:55 PM 63.0 °F - 33.1 °F 33% 29.97 in 10.0 mi NNE 3.5 mph - N/A   Clear
7:55 PM 54.0 °F - 34.0 °F 47% 30.04 in 10.0 mi North 3.5 mph - N/A   Scattered Clouds
8:55 PM 55.0 °F - 35.1 °F 47% 30.12 in 10.0 mi North 9.2 mph - N/A   Overcast
9:55 PM 53.1 °F - 36.0 °F 52% 30.17 in 10.0 mi NNW 10.4 mph - N/A   Clear
10:55 PM 48.9 °F - 39.0 °F 69% 30.21 in 10.0 mi North 19.6 mph 29.9 mph N/A   Mostly Cloudy
11:16 PM 46.9 °F - 37.9 °F 71% 30.24 in 10.0 mi North 18.4 mph 29.9 mph N/A   Overcast
11:38 PM 45.0 °F 38.5 °F 37.0 °F 74% 30.26 in 10.0 mi North 13.8 mph 29.9 mph N/A   Overcast
11:55 PM 45.0 °F 36.9 °F 36.0 °F 71% 30.27 in 10.0 mi North 20.7 mph 28.8 mph N/A   Overcast